map of SBAF home
SBAF - Airport
Location
City:  Rio de Janeiro, Rio de Janeiro, Brazil
Name:Campo Délio Jardim de Matos
Old (Alt.):Afonsos AFB
ICAO:SBAF

Details
Type:Airport (Aerodrome, Airfield)
Use:Military
Latitude:22°52'30"S (-22.875082)
Longitude:43°23'05"W (-43.384707)
Datum:WGS 1984
Elevation:110 ft (34 m)
Variation:22.62°W (WMM2015 magnetic declination)
-0.10° annual change
Runways:1
Longest:6565 × 171 ft (2001 × 52 m), paved

Time
Time Zone:UTC-3 (DST-2)
Local Time:

Weather
METAR:SBAF 231600Z 12006KT CAVOK 33/21 Q1012
TAF:SBAF 230800Z 2312/2324 04004KT 9999 FEW020 TX32/2318Z TN25/2323Z
BECMG 2315/231723015KT SCT025
TEMPO 2319/2324 23010KT 5000 TSRA BKN020 FEW030CB
RMK PGY

Related Locations
Nearby:
Farthest:IWO: 12119 mi / 19503 km
Iwo Jima [Iwo Jima AB], Iwo Jima Island, 13, JP

Find:

   beyond  
but within

Other Information
Maps:
NOTAMs:
Links:
Sources:

  
flag of Brazil
flag of Rio de Janeiro
flag of Rio de Janeiro
  

Sectional Chart

Flight Planning
at skyvector.com

Satellite Image

Google Maps Satellite view

 

Copyright © 2004-2017 Karl L. Swartz. All rights reserved.
The Great Circle Mapper name and logo are trademarks of the Great Circle Mapper.
All other trademarks mentioned herein belong to their respective owners.
Please see credits for attibutions and further copyright information.

  Follow gcmap on Facebook Follow gcmap on Twitter Follow gcmap on Google+ GCmap on LinkedIn

hCard Microformat

Geo Microformat